sat.trackr.live / text

‹ back to catalog

STARLINK-37047

NORAD 68957 · 2026-099G

PAYLOAD ACTIVE UNKNOWN

§ Identity

Operator
Country
US
Launch date
2026-05-01
Launch site
AFETR
Launch vehicle
Mass (kg)
RCS (m²)

Purposes: comms

External: N2YO · Heavens-Above · Gunter

§ Orbital elements

Epoch: 2026-05-25T04:00:03.998880Z

Period
92.95 min
Inclination
53.1588°
Eccentricity
0.0001360
Mean motion
15.49240067 rev/d
Perigee alt
418.0 km
Apogee alt
419.9 km
Semi-major
6,797.1 km
B*
1.4879e-3
RAAN
270.8429°
Arg perigee
53.0404°
Mean anomaly
220.5650°
Rev number
501

§ Raw data

STARLINK-370471 68957U 26099G   26145.16671295  .00082983  00000+0  14879-2 0  99962 68957  53.1588 270.8429 0001360  53.0404 220.5650 15.49240067  5019

JSON: /api/v1/satellites/68957 · /tle

For live sub-satellite position, see the globe view (requires WebGL).

§ Visibility from observer

Set your observer location to see the next 7 days of passes ≥ 10°. The values pass through the URL so the page stays shareable.

No JS? Fill the form by hand. The geolocation button needs JavaScript.